Weather in Verkhnyaya Khila

Russia / Zabaykalsky Krai     52°05′15″N   115°53′13″E
temp.,
°C
wind,
m/s
gust,
m/s
humid.,
%
clouds,
%
prec.,
mm/h
press.,
hPa
HPBL,
m
18 may, tue
tue1800:00+6nnw224213 0.0 100318
03:00+4wnw223694 0.0 100511
06:00+2nnw113652 0.0 100611
09:00+7nnw112577 0.0 1006745
12:00+12wsw4923100 0.0 10033227
15:00+14wnw91315100 0.0 10014026
18:00+14wnw81316100 0.0 10003677
21:00+10n472187 0.0 1003191
19 may, wed
wed1900:00+5e1125100 0.0 100510
03:00+3ssw2228100 0.0 100411
06:00+5ssw1130100 0.0 100221
09:00+9se3730100 0.0 997413
12:00+9ssw3972100 1.8 994764
15:00+6nne5588100 3.9 996433
18:00+7nnw686961 0.0 999998
21:00+5wsw11750 0.0 100210
20 may, thu
thu2000:00+3sw22845 0.0 100316
03:00+3wnw2283100 0.0 100312
06:00+3ssw1182100 0.0 100510
09:00+7n2163100 0.1 1005414
12:00+7nne4356100 0.0 1006566
15:00+9ne4350100 0.0 10061019
18:00+9ene345283 0.0 1006654
21:00+6ene376834 0.0 1007119
21 may, fri
fri2100:00+7ne3967100 0.0 1006257
03:00+6ene51071100 0.0 1004309
06:00+6ene61076100 0.0 1002284
09:00+11e6758100 0.1 999642
12:00+16ene5445100 0.3 9971142
15:00+20ne8841100 0.4 9941120
18:00+13nne10115596 0.0 995689
21:00+6nne10157733 0.0 997542
22 may, sat
sat2200:00+5ne81386100 0.0 996462
03:00+5nne61086100 0.0 994423
06:00+4n4690100 0.0 993334
09:00+7nne5582100 0.1 992415
12:00+11nne2167100 0.1 991713
15:00+16wsw575149 0.1 9891625
18:00+16wsw510430 0.9 9871777
21:00+8nnw34826 0.9 98976